GW0029 Weather Reports


Display with metric or nautical units.
time (UTC)temp
F
wind
direction
speed
MPH
gust
MPH
rain 1hr
in
rain 24hr
in
rain mn
in
humidity
%
barometer
mb
20260503221504 51 0 0.0 0.0 0.00 0.00 0.00 96 1005.9
20260503220505 51 0 0.0 0.0 0.00 0.00 0.00 94 1005.9
20260503220004 51 0 0.0 0.0 0.00 0.00 0.00 94 1005.9
20260503215505 51 0 0.0 0.0 0.00 0.00 0.00 93 1006.9
20260503215005 51 0 0.0 0.0 0.00 0.00 0.00 93 1006.9
20260503214504 51 0 0.0 0.0 0.00 0.00 0.00 93 1006.9
20260503214005 51 0 0.0 0.0 0.00 0.00 0.00 93 1005.9
20260503213504 51 203 0.0 2.0 0.00 0.00 0.00 93 1005.9
20260503213005 51 203 0.0 2.0 0.00 0.00 0.00 93 1005.9
20260503212005 51 77 0.0 3.0 0.00 0.00 0.00 94 1004.9
20260503211504 51 71 1.0 4.0 0.00 0.00 0.00 93 1004.9
20260503211004 51 68 0.0 4.0 0.00 0.00 0.00 94 1005.9
20260503210504 51 0 0.0 0.0 0.00 0.00 0.00 94 1005.9
20260503210006 51 0 0.0 0.0 0.00 0.00 0.00 94 1005.9
20260503205504 51 0 0.0 0.0 0.00 0.00 0.00 93 1005.9
20260503205005 51 356 0.0 3.0 0.00 0.00 0.00 93 1005.9
20260503204504 51 52 1.0 5.0 0.00 0.00 0.00 92 1005.9
20260503204005 51 70 1.0 5.0 0.00 0.00 0.00 92 1006.9
20260503203504 51 0 0.0 0.0 0.00 0.00 0.00 91 1006.9
20260503203005 51 0 0.0 0.0 0.00 0.00 0.00 90 1006.9
20260503202504 51 0 0.0 0.0 0.00 0.00 0.00 90 1006.9
20260503202004 51 0 0.0 0.0 0.00 0.00 0.00 90 1006.9
20260503201505 51 0 0.0 0.0 0.00 0.00 0.00 90 1006.9
20260503201004 51 0 0.0 0.0 0.00 0.00 0.00 90 1006.9
20260503200505 51 0 0.0 0.0 0.00 0.00 0.00 90 1006.9
20260503195005 51 0 0.0 0.0 0.00 0.00 0.00 89 1008.0
20260503194505 52 0 0.0 0.0 0.00 0.00 0.00 89 1008.0
20260503193504 52 0 0.0 0.0 0.00 0.00 0.00 89 1006.9
20260503193005 52 0 0.0 0.0 0.00 0.00 0.00 89 1006.9
20260503192505 52 0 0.0 0.0 0.00 0.00 0.00 88 1006.9
20260503192005 52 0 0.0 0.0 0.00 0.00 0.00 88 1006.9
20260503191006 52 0 0.0 0.0 0.00 0.00 0.00 88 1006.9
20260503190504 52 0 0.0 0.0 0.00 0.00 0.00 87 1006.9
20260503190005 53 0 0.0 0.0 0.00 0.00 0.00 87 1006.9
20260503185005 53 0 0.0 0.0 0.00 0.00 0.00 86 1008.0
20260503184505 53 0 0.0 0.0 0.00 0.00 0.00 86 1008.0
20260503184005 53 0 0.0 0.0 0.00 0.00 0.00 86 1008.0
20260503183504 53 0 0.0 0.0 0.00 0.00 0.00 86 1008.0
20260503182505 54 0 0.0 0.0 0.00 0.00 0.00 85 1008.0
20260503182006 54 0 0.0 0.0 0.00 0.00 0.00 84 1008.0
20260503181005 54 292 0.0 2.0 0.00 0.00 0.00 83 1008.0
20260503180504 55 0 0.0 0.0 0.00 0.00 0.00 82 1008.0
20260503180005 55 0 0.0 0.0 0.00 0.00 0.00 82 1008.0
20260503175504 55 0 0.0 0.0 0.00 0.00 0.00 82 1008.0
20260503175005 55 0 0.0 0.0 0.00 0.00 0.00 81 1008.0
20260503174504 55 0 0.0 0.0 0.00 0.00 0.00 81 1008.0
20260503174005 56 0 0.0 0.0 0.00 0.00 0.00 81 1008.0
20260503173504 56 0 0.0 0.0 0.00 0.00 0.00 81 1008.0
20260503173004 56 0 0.0 0.0 0.00 0.00 0.00 81 1008.0
20260503172505 56 0 0.0 0.0 0.00 0.00 0.00 81 1008.0
20260503171005 56 0 0.0 0.0 0.00 0.00 0.00 80 1009.0
20260503170505 56 0 0.0 0.0 0.00 0.00 0.00 80 1009.0
20260503151005 57 223 2.0 5.0 0.00 0.00 0.00 84 1009.0
20260503131005 56 225 2.0 7.0 0.00 0.00 0.00 82 1010.0
20260503110504 57 223 4.0 10.0 0.00 0.00 0.00 82 1009.0
20260503090505 54 237 3.0 7.0 0.00 0.00 0.00 88 1010.0
20260503081504 54 253 4.0 10.0 0.00 0.00 0.00 89 1010.0
20260503081005 54 249 2.0 8.0 0.00 0.00 0.00 89 1011.0
20260503080505 54 236 1.0 5.0 0.00 0.00 0.00 89 1011.0
20260503072505 53 237 2.0 6.0 0.00 0.00 0.00 91 1010.0
20260503071504 53 268 1.0 7.0 0.00 0.00 0.00 91 1010.0
20260503071004 53 255 1.0 7.0 0.00 0.00 0.00 91 1009.0
20260503070505 53 248 1.0 5.0 0.00 0.00 0.00 91 1009.0
20260503055005 52 240 1.0 5.0 0.00 0.00 0.00 91 1009.0
20260503054505 52 243 1.0 7.0 0.00 0.00 0.00 91 1009.0
20260503053505 52 231 1.0 4.0 0.00 0.00 0.00 91 1009.0
20260503053005 52 248 1.0 5.0 0.00 0.00 0.00 91 1009.0
20260503052505 52 256 1.0 5.0 0.00 0.00 0.00 91 1009.0
20260503051504 52 253 3.0 7.0 0.00 0.00 0.00 91 1009.0
20260503050504 53 266 3.0 9.0 0.00 0.00 0.00 91 1009.0
20260503050005 53 261 3.0 9.0 0.00 0.00 0.00 91 1009.0
20260503045004 53 268 3.0 8.0 0.00 0.00 0.00 91 1009.0
20260503044504 53 282 2.0 8.0 0.00 0.00 0.00 91 1009.0
20260503044005 53 274 1.0 8.0 0.00 0.00 0.00 92 1009.0
20260503043505 53 228 1.0 7.0 0.00 0.00 0.00 91 1009.0
20260503043005 53 252 2.0 11.0 0.00 0.00 0.00 92 1009.0
20260503042505 53 258 3.0 11.0 0.00 0.00 0.00 91 1009.0
20260503042005 53 258 1.0 8.0 0.00 0.00 0.00 91 1009.0
20260503041504 53 290 2.0 10.0 0.00 0.00 0.00 91 1009.0
20260503041005 53 280 3.0 10.0 0.00 0.00 0.00 92 1008.0
20260503040504 53 261 1.0 6.0 0.00 0.00 0.00 91 1008.0
20260503040005 53 251 1.0 6.0 0.00 0.00 0.00 91 1008.0
20260503035505 53 248 2.0 7.0 0.00 0.00 0.00 92 1009.0
20260503035004 53 246 1.0 7.0 0.00 0.00 0.00 92 1009.0
20260503034505 53 274 0.0 2.0 0.00 0.00 0.00 92 1009.0
20260503034005 53 269 1.0 6.0 0.00 0.00 0.00 92 1008.0
20260503033505 53 263 1.0 8.0 0.00 0.00 0.00 92 1008.0
20260503032504 53 265 1.0 4.0 0.00 0.00 0.00 91 1008.0
20260503032004 53 259 1.0 4.0 0.00 0.00 0.00 91 1008.0
20260503031504 53 238 0.0 3.0 0.00 0.00 0.00 91 1008.0
20260503030504 53 221 1.0 4.0 0.00 0.00 0.00 91 1009.0
20260503030005 53 246 1.0 4.0 0.00 0.00 0.00 91 1009.0
20260503025505 53 249 1.0 5.0 0.00 0.00 0.00 91 1008.0
20260503025005 53 237 2.0 7.0 0.00 0.00 0.00 91 1008.0
20260503024504 53 236 4.0 10.0 0.00 0.00 0.00 91 1008.0
20260503024004 53 225 4.0 10.0 0.00 0.00 0.00 90 1008.0
20260503023504 53 212 5.0 8.0 0.00 0.00 0.00 90 1008.0
20260503023005 53 207 5.0 8.0 0.00 0.00 0.00 90 1008.0
20260503022004 53 212 4.0 13.0 0.00 0.00 0.00 89 1009.0
20260503021504 53 214 5.0 13.0 0.00 0.00 0.00 90 1009.0
20260503020504 53 205 4.0 8.0 0.00 0.00 0.00 89 1008.0
20260503020004 53 207 4.0 10.0 0.00 0.00 0.00 88 1008.0
20260503015504 53 212 4.0 10.0 0.00 0.00 0.00 87 1009.0
20260503015004 53 207 3.0 7.0 0.00 0.00 0.00 87 1009.0
20260503014504 53 205 3.0 7.0 0.00 0.00 0.00 86 1009.0
20260503014005 53 202 4.0 9.0 0.00 0.00 0.00 86 1008.0
20260503012504 53 197 1.0 6.0 0.00 0.00 0.00 85 1008.0
20260503012005 53 97 1.0 5.0 0.00 0.00 0.00 85 1008.0
20260503011504 53 166 2.0 7.0 0.00 0.00 0.00 85 1008.0
20260503011005 54 185 3.0 7.0 0.00 0.00 0.00 84 1009.0
20260503010504 54 186 3.0 7.0 0.00 0.00 0.00 83 1009.0
20260503010005 54 182 2.0 5.0 0.00 0.00 0.00 83 1009.0
20260503005504 54 197 1.0 3.0 0.00 0.00 0.00 83 1009.0
20260503005005 54 195 1.0 4.0 0.00 0.00 0.00 83 1009.0
20260503004504 55 185 1.0 5.0 0.00 0.00 0.00 83 1009.0
20260503004005 55 186 2.0 5.0 0.00 0.00 0.00 84 1009.0
20260503003504 55 186 2.0 5.0 0.00 0.00 0.00 84 1009.0
20260503003005 55 196 2.0 5.0 0.00 0.00 0.00 84 1009.0
20260503002505 55 203 3.0 7.0 0.00 0.00 0.00 84 1010.0
20260503002005 55 200 4.0 8.0 0.00 0.00 0.00 84 1010.0
20260503001505 55 197 5.0 8.0 0.00 0.00 0.00 85 1010.0
20260503000504 56 196 5.0 10.0 0.00 0.00 0.00 85 1010.0
20260503000004 56 194 5.0 10.0 0.00 0.00 0.00 85 1010.0
20260502235504 56 197 5.0 10.0 0.00 0.00 0.00 85 1011.0
20260502235005 56 206 4.0 9.0 0.00 0.00 0.00 85 1011.0
20260502234505 56 216 2.0 6.0 0.00 0.00 0.00 85 1011.0
20260502232504 56 0 0.0 0.0 0.00 0.00 0.00 84 1010.0
20260502232005 56 0 0.0 0.0 0.00 0.00 0.00 83 1010.0
20260502231505 56 302 0.0 3.0 0.00 0.00 0.00 84 1010.0
20260502231004 56 302 0.0 3.0 0.00 0.00 0.00 83 1010.0
20260502230505 56 0 0.0 0.0 0.00 0.00 0.00 83 1010.0
20260502230004 56 0 0.0 0.0 0.00 0.00 0.00 84 1010.0
20260502225505 56 0 0.0 0.0 0.00 0.00 0.00 84 1010.0
20260502225004 56 0 0.0 0.0 0.00 0.00 0.00 83 1010.0
20260502223504 56 0 0.0 0.0 0.00 0.00 0.00 82 1010.0
20260502222504 56 0 0.0 0.0 0.00 0.00 0.00 84 1011.0